W5UOK-13 Weather Reports


time (UTC)temp
C
wind
direction
speed
KPH
gust
KPH
rain 1hr
cm
rain 24hr
cm
rain mn
cm
humidity
%
barometer
mb
20260509184548 30 209 3.2 14.5 0.00 0.03 0.03 67 1010.4
20260509183055 30 46 3.2 17.7 0.00 0.03 0.03 67 1010.3
20260509181546 30 136 3.2 16.1 0.00 0.03 0.03 68 1010.6
20260509180043 29 119 3.2 14.5 0.00 0.03 0.03 71 1010.8
20260509174549 28 157 3.2 11.3 0.00 0.03 0.03 73 1010.9
20260509173057 28 205 1.6 12.9 0.00 0.03 0.03 70 1011.0
20260509171601 28 268 3.2 14.5 0.00 0.03 0.03 72 1011.0
20260509170048 28 0 1.6 16.1 0.00 0.03 0.03 76 1011.0
20260509164551 27 218 1.6 12.9 0.00 0.03 0.03 82 1011.3
20260509163052 26 186 4.8 11.3 0.00 0.03 0.03 83 1011.6
20260509161547 25 237 3.2 11.3 0.00 0.03 0.03 85 1011.8
20260509160048 25 290 3.2 11.3 0.00 0.03 0.03 85 1011.8
20260509154550 25 160 3.2 9.7 0.00 0.03 0.03 86 1011.7
20260509153052 25 247 4.8 9.7 0.00 0.03 0.03 90 1011.5
20260509151543 23 145 0.0 3.2 0.00 0.03 0.03 95 1011.4
20260509150044 23 209 0.0 0.0 0.00 0.03 0.03 96 1011.2
20260509144551 22 0 0.0 0.0 0.00 0.03 0.03 96 1011.2
20260509143050 22 0 0.0 1.6 0.00 0.03 0.03 96 1011.3
20260509141551 22 256 0.0 4.8 0.00 0.03 0.03 96 1011.5
20260509140046 22 302 0.0 3.2 0.00 0.03 0.03 96 1011.7
20260509134556 22 261 1.6 4.8 0.00 0.03 0.03 96 1011.5
20260509133045 22 281 1.6 3.2 0.00 0.03 0.03 96 1011.0
20260509131602 22 222 1.6 8.0 0.00 0.03 0.03 96 1010.2
20260509130059 22 117 3.2 8.0 0.03 0.03 0.03 96 1010.2
20260509124549 22 153 1.6 6.4 0.03 0.03 0.03 96 1009.8
20260509123051 21 166 4.8 11.3 0.03 0.03 0.03 96 1009.9
20260509121550 21 123 3.2 11.3 0.03 0.03 0.03 96 1009.7
20260509120047 21 150 1.6 14.5 0.00 0.00 0.00 96 1009.7
20260509114604 21 148 1.6 6.4 0.00 0.00 0.00 96 1010.0
20260509113053 21 165 1.6 6.4 0.00 0.00 0.00 96 1010.3
20260509111549 21 132 0.0 3.2 0.00 0.00 0.00 96 1010.3
20260509110103 21 0 0.0 0.0 0.00 0.00 0.00 96 1010.6
20260509104557 21 0 0.0 4.8 0.00 0.00 0.00 96 1010.8
20260509103051 21 270 0.0 1.6 0.00 0.00 0.00 96 1010.7
20260509101549 21 202 1.6 4.8 0.00 0.00 0.00 95 1010.3
20260509100044 21 0 0.0 6.4 0.00 0.00 0.00 95 1010.2
20260509094549 21 157 0.0 3.2 0.00 0.00 0.00 95 1010.0
20260509093049 21 0 0.0 3.2 0.00 0.00 0.00 95 1010.5
20260509091546 21 0 0.0 3.2 0.00 0.00 0.00 95 1011.0
20260509090100 21 0 0.0 0.0 0.00 0.00 0.00 95 1011.0
20260509084557 21 0 0.0 0.0 0.00 0.00 0.00 95 1011.0
20260509083049 21 0 0.0 0.0 0.00 0.00 0.00 94 1011.0
20260509081546 21 0 0.0 11.3 0.00 0.00 0.00 94 1010.9
20260509080043 21 138 0.0 1.6 0.00 0.00 0.00 94 1011.0
20260509074552 21 0 0.0 3.2 0.00 0.00 0.00 93 1011.4
20260509073047 21 0 0.0 3.2 0.00 0.00 0.00 93 1011.6
20260509071547 21 0 0.0 3.2 0.00 0.00 0.00 93 1011.6
20260509070049 21 306 0.0 0.0 0.00 0.00 0.00 92 1011.7
20260509064545 21 0 0.0 0.0 0.00 0.00 0.00 92 1011.5
20260509063047 21 0 0.0 3.2 0.00 0.00 0.00 91 1011.4
20260509061554 21 0 0.0 4.8 0.00 0.00 0.00 92 1011.0
20260509060048 21 175 3.2 9.7 0.00 0.00 0.00 92 1010.5
20260509054609 21 0 3.2 14.5 0.00 0.00 0.00 92 1010.3
20260509053140 21 201 4.8 14.5 0.00 0.00 0.00 92 1010.4
20260509051554 21 146 1.6 14.5 0.00 0.00 0.00 92 1010.7
20260509050052 21 0 3.2 11.3 0.00 0.00 0.00 92 1010.9
20260509044549 21 157 1.6 4.8 0.00 0.00 0.00 91 1010.7
20260509043056 21 128 1.6 9.7 0.00 0.00 0.00 91 1010.6
20260509041548 21 156 1.6 6.4 0.00 0.00 0.00 91 1010.3
20260509040111 21 167 3.2 12.9 0.00 0.00 0.00 91 1010.2
20260509034609 21 179 1.6 8.0 0.00 0.00 0.00 91 1010.2
20260509033054 21 119 3.2 8.0 0.00 0.00 0.00 90 1009.9
20260509031552 22 165 1.6 6.4 0.00 0.00 0.00 90 1009.8
20260509030101 22 150 1.6 6.4 0.00 0.00 0.00 89 1009.8
20260509024546 22 119 1.6 4.8 0.00 0.00 0.00 88 1009.5
20260509023053 22 149 1.6 6.4 0.00 0.00 0.00 88 1009.7
20260509021556 22 205 0.0 8.0 0.00 0.00 0.00 87 1009.5
20260509020053 22 115 1.6 9.7 0.00 0.00 0.00 86 1009.5
20260509014546 22 137 1.6 6.4 0.00 0.00 0.00 86 1009.5
20260509013104 22 140 1.6 6.4 0.00 0.00 0.00 86 1009.4
20260509011549 23 123 1.6 6.4 0.00 0.00 0.00 85 1009.5
20260509010048 23 153 0.0 4.8 0.00 0.00 0.00 85 1009.6
20260509004547 23 134 1.6 4.8 0.00 0.00 0.00 84 1009.3
20260509003111 23 91 1.6 11.3 0.00 0.00 0.00 83 1009.2
20260509001546 23 107 3.2 14.5 0.00 0.00 0.00 82 1009.2
20260509000106 24 130 4.8 12.9 0.00 0.00 0.00 81 1009.3
20260508234551 24 110 3.2 16.1 0.00 0.00 0.00 80 1009.5
20260508233054 25 158 6.4 17.7 0.00 0.00 0.00 77 1009.4
20260508231549 26 123 6.4 12.9 0.00 0.00 0.00 76 1009.6
20260508230048 25 94 1.6 11.3 0.00 0.00 0.00 78 1009.7
20260508224603 25 115 1.6 6.4 0.00 0.00 0.00 78 1009.9
20260508223052 25 0 0.0 3.2 0.00 0.00 0.00 77 1010.0
20260508221551 26 109 0.0 3.2 0.00 0.00 0.00 76 1010.0
20260508220049 26 48 0.0 3.2 0.00 0.00 0.00 73 1010.2
20260508214553 26 0 0.0 3.2 0.00 0.00 0.00 76 1010.2
20260508213045 26 0 0.0 3.2 0.00 0.00 0.00 73 1010.4
20260508211549 26 0 0.0 3.2 0.00 0.00 0.00 74 1010.5
20260508210050 25 129 1.6 12.9 0.00 0.00 0.00 73 1010.6
20260508204548 25 154 6.4 14.5 0.00 0.00 0.00 73 1010.7
20260508203053 25 133 3.2 12.9 0.00 0.00 0.00 75 1010.8
20260508201557 25 153 4.8 11.3 0.00 0.00 0.00 74 1011.0
20260508200058 25 0 1.6 9.7 0.00 0.00 0.00 74 1011.3
20260508194550 25 85 1.6 9.7 0.00 0.00 0.00 75 1011.4
20260508193100 25 165 1.6 4.8 0.00 0.00 0.00 74 1011.8
20260508191551 25 51 1.6 3.2 0.00 0.00 0.00 71 1011.9